Temperature
19 17 16 15 15 15 15 15 15 15 15 15 14 14 14 14 14 14 14 14 13 13 13 13 13 13 13 13 13 13 12 12 12 12 13 13 13 12 12 12 12 12 12
20 18 16 15 15 15 15 15 14 14 14 14 14 13 13 13 12 13 12 12 12 12 12 12 12 13 13 13 12 12 12 12 12 12 12 12 12 12 12 12 12 12 12
20 18 16 15 15 15 15 15 14 14 14 14 13 12 12 12 11 12 11 11 11 11 11 12 12 12 12 12 12 12 12 12 12 12 12 12 12 12 12 12 12 12 11
19 18 17 16 15 15 15 15 15 15 14 13 12 11 11 11 11 11 11 11 11 11 12 12 12 12 12 12 12 12 12 12 12 12 12 12 12 12 12 12 11 11 11
19 19 18 16 16 15 15 15 15 15 14 13 12 11 11 11 11 11 12 12 13 13 13 13 13 12 12 12 13 13 13 13 13 13 13 13 13 12 12 12 11 11 11
19 19 18 17 16 15 15 15 15 15 15 14 12 12 11 11 11 12 13 13 13 14 14 13 13 13 13 13 13 13 13 13 13 13 13 13 13 13 13 12 12 11 11
19 19 18 17 16 15 15 15 15 15 15 14 13 12 11 11 12 12 13 13 14 14 14 14 14 14 14 13 13 13 13 13 13 13 13 13 13 13 13 13 12 12 11
19 18 18 17 16 15 15 15 15 15 15 14 13 12 12 12 12 13 13 13 13 13 13 13 14 13 13 13 13 13 13 13 13 12 12 12 12 12 12 12 12 12 12
18 18 18 17 16 15 15 15 15 15 15 15 14 13 13 12 13 13 13 13 13 13 13 13 13 13 13 13 13 13 13 12 12 12 12 12 12 12 12 12 12 12 12
18 18 17 17 16 15 15 15 15 15 15 15 14 14 13 13 13 13 13 13 13 13 13 13 13 13 13 13 13 13 12 12 12 12 12 12 12 12 12 12 12 12 12
18 17 17 17 17 16 15 15 14 14 15 15 14 14 14 13 13 13 13 13 13 13 13 13 13 13 13 12 12 12 12 12 12 12 12 12 12 12 12 12 12 12 12
19 18 18 17 17 16 15 15 15 14 14 14 14 14 14 13 13 13 13 13 13 13 12 12 12 12 12 12 12 12 12 12 12 12 12 12 12 12 12 12 12 12 12
19 19 18 18 17 17 16 15 15 14 14 14 14 14 13 13 13 13 13 12 12 12 12 12 12 12 12 12 12 12 12 12 12 12 12 11 11 11 11 11 11 11 11
19 19 19 18 18 17 16 16 15 15 14 14 14 13 13 13 13 12 12 12 12 12 12 12 12 12 12 11 11 11 11 11 11 11 11 11 11 11 11 11 11 11 11
20 19 19 18 18 17 16 16 15 15 14 14 13 13 13 13 12 12 12 12 12 12 11 11 11 11 11 11 11 11 11 11 11 11 11 11 11 11 10 10 10 10 10
20 20 19 19 18 17 17 16 15 14 14 13 13 13 13 12 12 12 12 12 12 11 11 11 11 11 11 11 11 11 11 11 11 11 10 10 10 9 9 9 9 9 9
20 20 20 19 19 18 17 16 15 14 14 13 13 13 13 12 12 12 12 12 12 11 11 11 11 11 11 11 11 11 10 10 10 10 10 9 9 8 8 8 8 9 9
20 20 20 19 19 18 17 16 15 14 14 13 13 13 13 13 12 12 12 12 12 11 11 11 11 11 11 11 10 10 10 10 9 9 9 8 8 8 8 8 8 8 8
20 20 20 19 19 18 17 16 15 14 14 14 13 13 13 13 12 12 12 12 11 11 11 11 11 10 10 10 10 9 9 9 9 8 8 7 7 8 8 8 8 8 8
19 19 19 19 18 18 16 15 15 14 14 14 13 13 13 12 12 12 12 11 11 11 10 10 10 9 9 9 9 9 9 9 8 8 7 7 7 7 7 7 7 7 7
19 19 19 19 18 17 16 15 15 14 14 13 13 13 12 12 11 11 11 11 11 10 10 9 9 8 8 8 8 8 8 8 8 7 7 7 7 7 6 6 6 6 6
18 18 18 18 17 17 16 15 15 14 13 13 13 12 12 11 11 11 11 11 10 10 9 8 8 7 7 6 6 6 6 7 6 6 6 6 5 5 5 5 5 5 5
17 18 18 17 17 16 15 14 14 13 13 12 12 12 11 11 11 11 10 10 10 9 8 7 7 6 5 5 4 4 3 2 3 4 4 4 4 4 4 4 4 4 3
17 17 17 16 16 15 14 14 14 13 13 12 12 11 11 10 10 10 10 9 9 8 7 6 6 5 5 4 3 3 2 0 -0 -0 2 3 3 3 3 3 3 3 2
16 16 16 15 15 14 13 13 13 13 13 12 11 11 11 10 10 10 9 9 8 7 6 5 5 4 4 3 3 2 1 0 -1 -3 -3 -0 1 1 2 2 2 2 1
15 15 15 14 14 13 13 12 13 13 12 12 11 11 10 10 9 9 8 8 7 6 5 5 4 4 3 3 2 1 0 -1 -2 -4 -4 -4 -3 -2 -1 -0 0 0 -0
Wind_Speed
6 8 18 18 17 16 14 13 11 10 9 9 9 9 9 9 8 7 6 5 4 4 4 4 2 3 4 6 7 7 7 6 6 6 6 6 7 7 5 3 3 3 3
9 13 19 19 18 16 14 12 11 9 9 8 8 7 7 7 6 5 5 4 4 4 5 6 6 4 5 6 7 6 5 5 5 6 6 7 8 8 6 4 3 4 3
10 15 18 19 18 17 15 13 11 9 8 8 7 7 7 6 5 5 4 3 3 4 5 6 7 7 8 8 7 5 4 4 4 5 6 7 8 8 7 5 5 5 5
12 14 16 19 19 17 15 13 11 10 9 8 8 8 7 6 5 4 4 3 3 4 4 5 6 6 7 6 5 4 3 4 4 4 5 5 6 8 7 6 7 7 7
10 13 16 20 19 17 15 13 11 10 9 9 8 8 8 7 6 5 4 3 3 3 3 4 4 4 5 4 3 3 4 4 4 3 4 5 6 8 8 8 8 8 9
9 12 16 20 19 17 16 14 12 11 10 9 9 8 7 6 6 5 4 3 3 2 2 2 2 2 3 3 3 4 5 6 4 4 6 7 7 9 10 10 10 10 11
10 10 14 19 18 17 16 14 12 11 11 10 9 8 7 6 5 4 4 3 2 1 0 1 2 2 3 4 5 6 7 7 6 6 7 8 9 11 12 12 12 12 12
10 9 13 18 18 17 16 14 13 12 11 10 10 9 7 6 5 4 4 3 2 2 2 2 3 4 5 6 7 8 9 9 9 7 9 10 12 12 12 12 13 14 14
7 7 9 13 15 16 16 15 13 12 11 10 10 8 6 4 3 3 3 3 3 3 4 5 5 6 7 8 9 9 10 10 9 8 9 10 12 13 14 14 14 15 16
7 8 6 9 11 13 14 15 14 12 11 10 9 7 5 4 2 2 2 4 5 6 6 6 7 7 8 8 9 9 10 9 8 8 9 10 12 13 14 15 14 15 16
8 8 7 7 8 10 11 13 13 12 11 9 8 7 5 2 1 2 4 5 6 7 7 7 7 8 8 7 8 8 8 7 7 7 8 9 11 12 14 14 13 13 13
12 11 9 9 8 9 10 10 10 10 9 8 6 5 4 2 1 3 4 5 5 5 5 6 7 8 8 7 8 8 8 8 7 7 8 10 11 11 12 13 13 13 13
11 11 12 11 9 8 6 7 7 8 7 7 7 6 4 2 0 2 3 4 5 5 5 6 7 7 7 7 8 8 9 8 8 8 9 11 10 10 10 11 13 14 15
8 11 12 12 11 10 8 6 7 6 6 6 7 7 5 3 2 2 2 3 4 4 5 5 5 7 8 9 8 8 9 8 9 9 9 11 12 12 13 14 16 17 17
10 11 12 12 13 11 9 6 6 6 6 7 7 7 7 4 3 3 3 4 5 6 6 5 5 6 6 7 8 7 7 9 9 9 9 13 17 17 17 17 17 17 17
11 12 11 14 14 13 11 8 6 6 6 7 6 8 8 7 5 4 4 5 6 7 8 7 6 5 4 4 5 6 6 8 7 8 10 13 17 19 18 18 18 18 17
10 9 11 13 13 14 12 10 6 7 7 6 6 8 9 9 9 7 5 5 6 8 9 8 6 6 5 6 6 5 5 6 6 7 9 12 14 17 18 19 19 18 17
8 8 10 11 13 13 11 9 6 7 7 6 8 9 11 11 11 9 6 5 8 8 7 5 5 5 6 6 6 5 4 4 4 6 8 10 11 13 15 19 20 19 18
9 8 9 10 12 12 11 9 8 7 7 8 10 10 12 13 13 11 7 6 9 7 5 5 6 5 5 7 6 5 4 4 2 4 5 7 8 10 13 17 20 19 18
7 7 8 9 10 12 11 10 9 10 8 8 9 11 13 13 14 12 8 8 8 6 6 5 6 6 5 6 6 6 4 3 2 3 3 3 5 9 14 16 17 17 18
6 7 9 11 12 13 12 11 10 8 8 8 8 12 14 14 13 11 8 7 7 8 7 6 4 6 6 6 5 6 4 3 3 1 2 1 3 9 15 16 17 16 14
8 8 9 11 12 12 10 7 6 8 8 8 7 11 14 14 12 11 9 7 6 7 8 8 6 3 5 6 4 4 5 6 5 4 4 3 5 8 10 16 17 15 15
8 10 10 11 11 11 12 13 13 9 7 6 8 7 9 13 13 13 11 8 6 7 6 6 6 5 4 4 5 4 3 4 5 5 5 4 5 5 6 10 13 16 18
9 8 10 11 12 13 15 16 18 12 9 6 7 8 9 12 12 14 13 11 7 6 6 6 5 4 3 3 3 2 1 3 3 6 5 4 5 8 8 9 11 16 17
9 10 11 12 13 12 12 15 15 13 10 10 10 11 10 8 10 12 12 10 7 5 6 6 5 4 3 2 1 2 2 2 2 3 7 6 7 5 6 9 8 10 14
10 10 12 14 12 11 12 13 16 19 18 15 12 10 8 6 6 9 11 9 7 5 5 4 4 4 2 2 1 0 1 2 2 4 6 12 12 7 9 10 8 6 12
Wind_Direction
201 185 166 153 149 147 145 141 137 134 133 134 134 132 128 120 113 105 98 89 77 68 60 63 86 122 129 131 120 109 95 76 58 44 29 18 6 353 340 328 333 330 303
163 172 165 156 153 151 149 146 142 141 141 138 136 138 134 125 113 105 95 88 79 62 51 49 59 71 101 113 110 98 87 68 46 36 38 25 3 346 326 298 297 303 293
152 165 163 157 156 155 153 149 148 149 151 147 142 143 136 130 120 107 97 88 77 54 43 40 44 54 72 84 89 81 67 41 24 25 33 16 355 341 321 278 267 284 282
155 160 159 159 159 158 156 155 154 156 156 155 150 146 140 137 130 115 100 83 75 64 52 46 44 51 56 63 64 53 29 4 6 16 17 357 343 332 317 277 252 258 268
154 157 161 162 163 162 161 161 161 162 163 161 157 151 149 145 138 124 103 87 82 75 63 55 49 49 44 39 27 357 332 332 347 352 334 327 321 316 309 287 267 265 272
154 157 165 165 166 165 166 167 169 170 170 168 164 161 161 158 154 139 127 117 113 102 80 58 39 22 7 352 333 320 319 325 334 312 304 303 300 302 298 288 278 271 268
158 161 169 169 170 170 171 172 174 175 176 174 174 174 175 173 170 161 160 156 155 151 79 10 349 338 325 318 312 310 313 319 310 292 289 288 287 293 291 284 279 275 269
163 163 173 175 175 175 176 177 179 180 181 181 184 185 187 186 182 181 189 195 205 235 287 325 327 321 316 312 313 315 318 316 309 296 288 286 289 296 293 284 277 274 272
162 163 173 180 179 178 180 181 182 183 186 187 191 194 196 192 196 200 215 226 251 280 304 316 317 315 314 314 316 317 318 316 310 297 294 292 297 300 295 288 280 273 269
170 175 173 178 177 179 182 184 184 185 188 191 193 189 180 173 182 240 264 265 277 292 305 314 317 319 322 324 326 327 327 325 319 310 303 302 309 308 303 299 294 285 278
190 190 183 179 177 176 179 185 185 187 190 191 192 183 169 163 219 311 311 300 295 300 310 320 331 342 350 351 349 348 349 347 336 325 319 323 326 323 321 325 325 317 307
200 198 194 191 183 175 182 180 180 183 186 184 179 173 167 174 269 321 329 335 330 332 343 358 12 18 19 11 7 11 10 4 1 348 344 348 345 340 341 347 351 352 350
201 198 198 197 189 182 178 171 175 177 178 181 181 178 171 159 78 8 3 5 20 31 36 34 36 33 31 25 19 19 19 18 12 3 0 3 2 357 359 7 16 17 17
197 200 198 196 194 191 183 174 174 174 175 181 187 183 165 143 121 78 55 46 51 55 54 48 47 41 38 33 27 24 24 18 10 8 11 21 31 33 34 34 30 25 23
208 206 198 194 196 193 186 178 177 178 180 186 182 179 167 147 133 112 89 75 66 66 61 53 50 45 35 26 22 22 19 10 12 23 29 44 48 44 41 34 26 20 16
217 211 198 195 194 190 189 184 177 174 171 167 167 169 162 146 133 118 97 77 65 65 63 60 55 44 30 15 10 14 19 11 19 38 47 52 51 44 39 31 22 15 11
221 209 197 196 189 187 186 179 167 162 158 155 153 150 144 137 128 115 98 79 66 69 68 59 51 43 28 12 1 2 19 14 29 45 56 60 56 44 36 29 19 11 6
219 206 198 191 184 182 176 163 152 148 143 137 132 129 125 120 116 105 95 84 75 69 64 61 37 35 21 5 346 344 8 7 34 52 57 64 62 49 34 25 16 7 0
211 196 185 179 174 169 155 141 128 122 117 116 114 112 111 108 107 101 93 86 79 67 51 55 46 37 19 356 334 335 359 358 24 51 55 61 59 49 35 20 10 0 354
193 178 167 157 153 144 134 123 114 104 100 99 102 105 104 103 103 100 91 81 76 68 52 47 52 40 25 349 332 332 338 348 10 55 47 51 46 37 26 12 0 348 344
172 162 156 148 148 146 144 137 128 119 111 99 95 100 100 100 99 98 94 80 72 72 60 45 45 34 18 360 0 340 339 353 350 52 26 3 19 20 13 359 344 330 326
175 163 152 152 152 151 145 131 120 119 107 99 96 93 98 100 99 97 93 88 78 78 62 48 45 45 21 22 28 7 348 338 341 345 346 356 12 10 357 338 323 315 315
179 169 158 151 145 137 131 122 117 109 106 104 100 92 90 97 97 97 93 89 78 77 72 60 52 61 32 14 39 56 19 314 310 314 320 341 356 350 328 315 310 310 308
179 160 147 143 141 141 140 142 143 142 136 127 123 112 98 95 95 92 90 86 80 76 73 63 62 61 65 27 4 28 225 239 291 310 301 306 321 317 303 311 306 299 297
157 150 143 138 139 143 144 146 137 127 122 124 118 111 101 90 87 87 87 84 79 76 76 68 63 60 69 74 18 340 331 312 255 275 294 304 304 284 292 295 292 290 291
143 141 142 140 139 139 140 141 138 135 135 133 128 119 109 97 82 81 84 81 79 76 72 68 66 62 59 58 37 278 253 287 290 279 288 306 307 296 286 282 279 280 292
Height
1499 1500 1503 1504 1506 1508 1509 1510 1511 1512 1512 1512 1513 1513 1514 1514 1515 1515 1516 1516 1516 1517 1517 1518 1519 1520 1521 1522 1522 1523 1523 1523 1522 1522 1522 1522 1522 1522 1523 1523 1524 1525 1526
1498 1499 1502 1504 1506 1507 1509 1510 1511 1511 1511 1511 1511 1512 1513 1513 1514 1514 1514 1515 1515 1516 1517 1518 1519 1520 1521 1521 1522 1522 1522 1522 1522 1521 1521 1521 1521 1522 1522 1523 1523 1524 1525
1497 1498 1501 1503 1505 1507 1509 1510 1510 1511 1510 1510 1511 1512 1513 1513 1514 1514 1514 1514 1515 1515 1516 1517 1518 1519 1520 1521 1521 1521 1522 1521 1521 1520 1520 1520 1521 1521 1522 1522 1522 1523 1524
1497 1498 1500 1503 1505 1507 1508 1510 1510 1510 1510 1510 1511 1512 1513 1514 1514 1515 1515 1514 1514 1515 1515 1516 1517 1518 1519 1520 1520 1520 1520 1520 1520 1520 1519 1519 1520 1520 1521 1521 1522 1522 1523
1497 1498 1500 1503 1505 1507 1509 1510 1510 1510 1510 1511 1512 1513 1514 1514 1515 1515 1515 1515 1515 1515 1515 1516 1517 1518 1519 1520 1520 1520 1520 1520 1519 1519 1519 1518 1519 1519 1519 1520 1520 1521 1521
1497 1498 1501 1503 1505 1507 1509 1510 1511 1511 1511 1512 1513 1513 1514 1515 1516 1516 1516 1516 1516 1516 1516 1517 1518 1519 1519 1520 1520 1519 1519 1519 1519 1519 1518 1518 1517 1517 1517 1518 1518 1518 1518
1497 1499 1501 1503 1505 1507 1509 1510 1511 1511 1512 1512 1513 1514 1515 1516 1517 1517 1517 1517 1517 1517 1518 1518 1518 1519 1519 1519 1519 1519 1519 1519 1518 1518 1517 1517 1516 1516 1516 1516 1515 1516 1516
1498 1499 1501 1503 1505 1507 1509 1510 1511 1512 1512 1513 1514 1515 1516 1517 1518 1518 1519 1519 1519 1519 1519 1519 1519 1520 1520 1519 1519 1519 1518 1518 1518 1517 1517 1516 1515 1515 1514 1514 1514 1513 1513
1498 1500 1501 1503 1505 1507 1509 1511 1512 1512 1513 1514 1515 1516 1517 1518 1519 1519 1520 1520 1520 1520 1520 1520 1520 1520 1520 1520 1519 1519 1518 1517 1517 1516 1515 1515 1514 1513 1513 1513 1512 1512 1511
1498 1499 1501 1503 1504 1506 1508 1510 1512 1513 1513 1514 1515 1516 1517 1518 1519 1520 1520 1520 1520 1520 1520 1520 1520 1520 1520 1519 1519 1518 1517 1516 1516 1515 1514 1513 1513 1512 1511 1511 1510 1509 1508
1496 1498 1500 1502 1503 1505 1507 1509 1511 1512 1513 1514 1515 1516 1517 1518 1519 1520 1520 1520 1520 1520 1520 1520 1520 1520 1519 1519 1518 1517 1516 1515 1514 1513 1512 1511 1510 1510 1509 1508 1506 1505 1505
1494 1497 1498 1500 1502 1504 1506 1508 1510 1511 1512 1513 1515 1516 1517 1518 1519 1520 1520 1520 1520 1520 1520 1520 1519 1519 1518 1518 1517 1516 1514 1513 1512 1510 1509 1508 1507 1506 1505 1504 1503 1502 1501
1493 1495 1497 1499 1501 1503 1505 1507 1509 1510 1511 1513 1514 1515 1516 1518 1519 1519 1520 1520 1520 1520 1519 1519 1518 1517 1517 1516 1515 1513 1512 1510 1509 1507 1506 1505 1504 1503 1501 1500 1499 1498 1497
1491 1493 1495 1497 1499 1501 1503 1505 1507 1509 1510 1512 1513 1515 1516 1517 1518 1519 1519 1519 1519 1519 1518 1517 1517 1515 1514 1513 1512 1511 1509 1507 1505 1504 1503 1501 1500 1499 1498 1496 1495 1494 1493
1489 1491 1493 1495 1496 1499 1501 1503 1505 1507 1509 1511 1512 1514 1515 1516 1517 1518 1518 1518 1518 1517 1516 1515 1514 1513 1512 1511 1509 1507 1505 1503 1502 1500 1499 1497 1496 1495 1493 1492 1491 1490 1489
1486 1488 1489 1491 1493 1496 1498 1501 1504 1506 1508 1510 1511 1513 1514 1515 1516 1517 1517 1517 1516 1515 1514 1513 1512 1510 1509 1508 1506 1504 1502 1500 1498 1496 1495 1493 1492 1491 1490 1488 1487 1486 1485
1483 1484 1485 1487 1490 1492 1495 1498 1501 1504 1506 1508 1510 1511 1513 1514 1515 1515 1515 1515 1514 1513 1512 1511 1509 1508 1506 1505 1503 1501 1499 1496 1494 1492 1491 1490 1489 1488 1486 1485 1484 1483 1481
1478 1479 1481 1483 1485 1487 1491 1494 1498 1501 1503 1505 1507 1509 1511 1512 1513 1513 1513 1513 1512 1511 1509 1508 1506 1505 1503 1501 1500 1498 1495 1493 1491 1489 1488 1487 1486 1485 1484 1482 1480 1478 1476
1473 1474 1476 1478 1480 1483 1486 1490 1494 1497 1500 1502 1505 1507 1508 1509 1510 1511 1511 1510 1510 1509 1507 1505 1503 1501 1499 1497 1496 1494 1492 1489 1487 1486 1485 1484 1483 1482 1480 1478 1476 1474 1471
1467 1468 1471 1473 1475 1477 1481 1484 1488 1492 1496 1499 1501 1504 1505 1507 1508 1509 1509 1508 1508 1506 1505 1503 1500 1498 1496 1494 1492 1490 1488 1486 1485 1483 1482 1481 1480 1479 1477 1475 1472 1469 1466
1461 1463 1465 1468 1470 1472 1475 1478 1482 1487 1492 1495 1498 1501 1503 1505 1506 1507 1507 1507 1506 1504 1502 1500 1498 1496 1493 1491 1488 1486 1485 1484 1482 1481 1480 1479 1477 1475 1473 1470 1467 1463 1459
1455 1457 1460 1463 1465 1467 1471 1474 1479 1483 1488 1492 1495 1498 1501 1503 1504 1505 1505 1504 1503 1502 1500 1498 1496 1493 1491 1488 1486 1482 1481 1480 1479 1479 1477 1475 1472 1469 1467 1464 1461 1457 1453
1450 1453 1455 1458 1461 1464 1467 1471 1475 1480 1485 1489 1493 1496 1498 1501 1503 1503 1503 1502 1501 1499 1497 1495 1493 1492 1490 1488 1485 1484 1482 1478 1473 1469 1469 1467 1464 1462 1459 1456 1453 1450 1446
1445 1449 1452 1455 1458 1461 1464 1468 1472 1477 1482 1486 1490 1494 1497 1499 1501 1501 1501 1500 1499 1497 1495 1493 1492 1490 1488 1486 1484 1483 1482 1478 1473 1464 1460 1460 1457 1454 1451 1449 1446 1443 1439
1441 1444 1448 1451 1454 1458 1463 1467 1472 1476 1480 1484 1488 1492 1495 1497 1498 1499 1499 1498 1496 1495 1493 1492 1490 1488 1486 1484 1482 1479 1477 1475 1472 1466 1455 1449 1447 1445 1443 1441 1439 1435 1431
1435 1440 1444 1448 1452 1456 1461 1466 1470 1474 1478 1482 1486 1490 1493 1495 1496 1497 1496 1495 1494 1493 1492 1490 1489 1487 1484 1482 1479 1476 1474 1471 1468 1463 1454 1444 1438 1434 1433 1432 1431 1428 1424